Meteo Giornale » Osservazioni meteo Stati Uniti (USA) » New York City Central Park

ore: 11:51 - Osservazioni Meteo New York City Central Park
Lat. 40° 47' N Lon. 73° 58' W Alt. 47 metri s.l.m.

coperto America/New_York

27 °C

Coperto

Temp. 24 Ore

24 °C

30 °C

Sud-Ovest

9.3 Km/h

Dew point 21 °C

Umidità 69 %

Visibilità  10 Km

Il sole sorge alle ore 06:11

Il sole tramonta alle ore 19:46

Data e Ora Cielo e Fenomeni T °C DP °C Um. % Pres. hPa Vis. km Vento km/h
Oggi h: 11:51 coperto Coperto 27 21 69 1015 10 SO 9.3
Oggi h: 10:51 sereno Sereno 28 21 65 1015 10 N 7.4
Oggi h: 09:51 sereno Sereno 27 22 74 1015 10 N 5.5
Oggi h: 08:51 poco_nuvoloso Poco Nuvoloso 27 22 74 1015 14 N 5.5
Oggi h: 07:51 foschia Foschia 26 23 83 1016 8 N 0
Oggi h: 06:51 foschia Foschia 25 23 88 1016 6 N 0
Oggi h: 05:51 foschia Foschia 25 23 88 1015 10 N 0
Oggi h: 04:51 foschia Foschia 24 23 94 1016 10 N 0
Oggi h: 04:43 foschia Foschia 24 23 94 1016 10 N 0
Oggi h: 03:51 molto_nuvoloso Molto Nuvoloso 25 23 88 1017 13 O/SO 13
Oggi h: 03:42 molto_nuvoloso Molto Nuvoloso 25 22 83 1017 14 N 0
Oggi h: 02:51 poco_nuvoloso Poco Nuvoloso 24 22 88 1017 14 N 0
Oggi h: 01:51 poco_nuvoloso Poco Nuvoloso 24 22 88 1018 10 N 5.5
Oggi h: 00:51 sereno Sereno 25 21 78 1018 10 N 5.5
Ieri h: 23:51 sereno Sereno 26 20 69 1018 10 N 0
Ieri h: 22:51 sereno Sereno 26 20 69 1018 10 N 5.5
Ieri h: 21:51 sereno Sereno 26 19 65 1018 10 N 0
Ieri h: 20:51 sereno Sereno 26 18 61 1018 10 N 0
Ieri h: 19:51 sereno Sereno 27 18 57 1017 10 N 0
Ieri h: 18:51 sereno Sereno 27 17 54 1018 10 N 0
Ieri h: 17:51 sereno Sereno 28 18 54 1018 10 N 9.3
Ieri h: 16:51 sereno Sereno 29 18 51 1018 10 N 7.4
Ieri h: 15:51 sereno Sereno 29 19 54 1018 10 N 7.4
Ieri h: 14:51 poco_nuvoloso Poco Nuvoloso 30 18 48 1019 10 N 7.4
Ieri h: 13:51 sereno Sereno 29 19 54 1019 10 N 5.5
Ieri h: 12:51 sereno Sereno 29 17 48 1019 10 N 5.5